Change the Weather History Date:

Saturday, January 25, 2014

  Actual Average Record
Temperature  
Mean Temperature 48 °F -  
Max Temperature 54 °F 46 °F - ()
Min Temperature 41 °F 35 °F - ()
Degree Days  
Heating Degree Days 18    
Moisture  
Dew Point 42 °F    
Average Humidity 83    
Maximum Humidity 100    
Minimum Humidity 48    
Precipitation  
Precipitation 0.08 in - - ()
Sea Level Pressure  
Sea Level Pressure 29.90 in    
Wind  
Wind Speed 8 mph ()    
Max Wind Speed 25 mph    
Max Gust Speed 38 mph    
Visibility 6.4 miles    
Events Fog , Rain    
T = Trace of Precipitation, MM = Missing Value Source: Averaged Metar Reports

Daily Weather History Graph

Daily Weather History Graph

Search for Another Location

Airport or City:

Trip Planner

Search our weather history database for the weather conditions in past years. The results will help you decide how hot, cold, wet, or windy it might be!

Date:

Astronomy

Jan. 25, 2014 Rise Set
Actual Time 7:50 AM GMT 4:38 PM GMT
Civil Twilight 7:12 AM GMT 5:15 PM GMT
Nautical Twilight 6:32 AM GMT 5:56 PM GMT
Astronomical Twilight 5:52 AM GMT 6:36 PM GMT
Moon 2:01 AM GMT (1/25) 11:30 AM GMT (1/25)
Length of Visible Light 10h 02m
Length of Day
8h 48m
Last Quarter, 36% of the Moon is Illuminated
Jan 25
Last Quarter
Jan 30
New
Feb 6
First Quarter
Feb 14
Full
Feb 22
Last Quarter

Hourly Weather History & Observations

Time (GMT) Temp. Windchill Dew Point Humidity Pressure Visibility Wind Dir Wind Speed Gust Speed Precip Events Conditions
12:00 AM 45 °F - 44 °F 93% 29.91 in 2 mi SE 4.6 mph - - Rain Rain
12:20 AM 44.6 °F 42.2 °F 44.6 °F 100% 29.89 in 3.1 mi SE 4.6 mph - N/A Rain Light Rain
12:50 AM 44.6 °F 43.1 °F 44.6 °F 100% 29.89 in 3.7 mi Variable 3.5 mph - N/A Rain Light Rain
1:00 AM 45 °F - 44 °F 95% 29.90 in 3 mi SE 3.5 mph - - Rain Light Rain Showers
1:20 AM 44.6 °F - 44.6 °F 100% 29.89 in - SE 2.3 mph - N/A   Drizzle
1:50 AM 44.6 °F - 44.6 °F 100% 29.89 in 1.9 mi Calm Calm - N/A   Mostly Cloudy
2:00 AM 45 °F - 44 °F 96% 29.91 in 2 mi SE 3.5 mph - - Rain Rain
2:20 AM 44.6 °F - 44.6 °F 100% 29.92 in 1.7 mi Calm Calm - N/A   Mostly Cloudy
2:50 AM 44.6 °F - 44.6 °F 100% 29.92 in 2.5 mi Variable 2.3 mph - N/A   Mostly Cloudy
3:00 AM 45 °F - 44 °F 96% 29.91 in 3 mi South 2.3 mph - -   Mist
3:20 AM 46.4 °F - 44.6 °F 93% 29.92 in - Calm Calm - N/A   Mostly Cloudy
3:50 AM 46.4 °F - 44.6 °F 93% 29.92 in 1.4 mi SE 2.3 mph - N/A   Mostly Cloudy
4:00 AM 46 °F - 45 °F 94% 29.92 in 1 mi SSE 1.2 mph - -   Mist
4:20 AM 46.4 °F - 44.6 °F 93% 29.92 in 1.3 mi Variable 2.3 mph - N/A   Mostly Cloudy
4:50 AM 46.4 °F 43.5 °F 44.6 °F 93% 29.92 in 1.7 mi SW 5.8 mph - N/A   Mostly Cloudy
5:00 AM 46 °F - 46 °F 97% 29.93 in 3 mi SW 4.6 mph - -   Mist
5:20 AM 46.4 °F 44.3 °F 46.4 °F 100% 29.92 in - SW 4.6 mph - N/A   Mostly Cloudy
5:50 AM 46.4 °F 42.9 °F 46.4 °F 100% 29.95 in - West 6.9 mph - N/A   Mostly Cloudy
6:00 AM 46 °F - 46 °F 98% 29.95 in 1 mi West 6.9 mph - -   Mist
6:20 AM 46.4 °F 42.9 °F 46.4 °F 100% 29.95 in 1.2 mi WSW 6.9 mph - N/A   Mostly Cloudy
6:50 AM 46.4 °F 42.9 °F 46.4 °F 100% 29.95 in 1.6 mi WSW 6.9 mph - N/A   Mostly Cloudy
7:00 AM 47 °F - 46 °F 95% 29.94 in 3 mi SW 5.8 mph - - Fog Fog
7:20 AM 46.4 °F 42.9 °F 46.4 °F 100% 29.95 in 1.6 mi SW 6.9 mph - N/A   Mostly Cloudy
7:50 AM 46.4 °F 41.9 °F 46.4 °F 100% 29.95 in 1.6 mi WSW 9.2 mph - N/A   Mostly Cloudy
8:00 AM 47 °F - 46 °F 96% 29.96 in 4 mi WSW 9.2 mph - -   Mist
8:20 AM 46.4 °F 42.4 °F 46.4 °F 100% 29.95 in - WSW 8.1 mph - N/A   Mostly Cloudy
8:50 AM 48.2 °F - 46.4 °F 93% 29.95 in 3.1 mi SW 8.1 mph - N/A   Mostly Cloudy
9:00 AM 48 °F - 47 °F 93% 29.97 in 6 mi SW 8.1 mph - -   Mist
9:20 AM 48.2 °F - 46.4 °F 93% 29.98 in 3.7 mi WSW 8.1 mph - N/A   Mostly Cloudy
9:50 AM 48.2 °F - 46.4 °F 93% 29.98 in 4.3 mi SW 10.4 mph - N/A   Scattered Clouds
10:00 AM 49 °F - 46 °F 87% 29.97 in 9 mi SW 9.2 mph - -   Partly Cloudy
10:20 AM 50.0 °F - 46.4 °F 87% 29.98 in 6.2 mi SW 10.4 mph - N/A   Partly Cloudy
10:50 AM 50.0 °F - 46.4 °F 87% 29.95 in 6.2 mi WSW 11.5 mph - N/A   Partly Cloudy
11:00 AM 49 °F - 45 °F 82% 29.96 in 11 mi WSW 10.4 mph - -   Mostly Cloudy
11:20 AM 50.0 °F - 46.4 °F 87% 29.92 in 6.2 mi SSW 9.2 mph - N/A   Partly Cloudy
11:50 AM 51.8 °F - 46.4 °F 82% 29.89 in 6.2 mi SW 11.5 mph - N/A   Partly Cloudy
12:00 PM 51 °F - 46 °F 77% 29.90 in 10 mi SW 10.4 mph - -   Scattered Clouds
12:20 PM 51.8 °F - 46.4 °F 82% 29.89 in - WSW 9.2 mph - N/A   Clear
12:50 PM 53.6 °F - 46.4 °F 77% 29.86 in - SW 10.4 mph - N/A   Clear
1:00 PM 53 °F - 46 °F 71% 29.87 in 11 mi SW 8.1 mph - -   Mostly Cloudy
1:20 PM 53.6 °F - 44.6 °F 72% 29.83 in - SW 11.5 mph - N/A   Clear
1:50 PM 53.6 °F - 44.6 °F 72% 29.83 in 6.2 mi SW 11.5 mph - N/A   Partly Cloudy
2:00 PM 54 °F - 44 °F 60% 29.82 in 18 mi SSW 12.7 mph - -   Scattered Clouds
2:20 PM 53.6 °F - 42.8 °F 67% 29.77 in 6.2 mi SW 13.8 mph - N/A   Partly Cloudy
2:50 PM 53.6 °F - 41.0 °F 62% 29.77 in - WSW 19.6 mph - N/A   Clear
3:00 PM 54 °F - 40 °F 48% 29.78 in 18 mi SW 20.7 mph - -  
3:20 PM 53.6 °F - 39.2 °F 58% 29.77 in 6.2 mi WSW 25.3 mph 38.0 mph N/A   Scattered Clouds
3:50 PM 51.8 °F - 41.0 °F 67% 29.77 in 6.2 mi West 25.3 mph - N/A   Scattered Clouds
4:00 PM 52 °F - 41 °F 56% 29.76 in 18 mi WSW 24.2 mph - - Rain Light Rain Showers
4:20 PM 51.8 °F - 41.0 °F 67% 29.74 in 6.2 mi West 25.3 mph 38.0 mph N/A   Scattered Clouds
4:50 PM 42.8 °F 34.3 °F 41.0 °F 93% 29.83 in 6.2 mi West 19.6 mph - N/A   Mostly Cloudy
5:00 PM 44 °F - 40 °F 79% 29.83 in 25 mi West 19.6 mph - - Rain Rain
5:20 PM 44.6 °F 36.9 °F 39.2 °F 81% 29.83 in 6.2 mi West 18.4 mph - N/A   Scattered Clouds
5:50 PM 44.6 °F 36.9 °F 39.2 °F 81% 29.86 in 6.2 mi West 18.4 mph - N/A   Partly Cloudy
6:00 PM 45 °F - 38 °F 68% 29.86 in 28 mi West 18.4 mph - - Rain Rain
6:20 PM 44.6 °F 36.1 °F 37.4 °F 76% 29.86 in 6.2 mi WNW 21.9 mph - N/A   Partly Cloudy
6:50 PM 44.6 °F 36.9 °F 37.4 °F 76% 29.89 in 6.2 mi WNW 18.4 mph - N/A   Partly Cloudy
7:00 PM 45 °F - 35 °F 57% 29.89 in 22 mi WNW 20.7 mph - -  
7:20 PM 44.6 °F 36.1 °F 35.6 °F 71% 29.89 in - West 21.9 mph - N/A   Clear
7:50 PM 42.8 °F 34.0 °F 35.6 °F 76% 29.92 in - West 20.7 mph 35.7 mph N/A   Clear
8:00 PM 44 °F - 34 °F 57% 29.91 in 19 mi West 21.9 mph - -  
8:20 PM 42.8 °F 34.5 °F 35.6 °F 76% 29.95 in - West 18.4 mph - N/A   Clear
8:50 PM 42.8 °F 35.1 °F 35.6 °F 76% 29.95 in - West 16.1 mph - N/A   Clear
9:00 PM 43 °F - 34 °F 60% 29.96 in 19 mi West 15.0 mph - -  
9:20 PM 42.8 °F 34.3 °F 35.6 °F 76% 29.95 in - West 19.6 mph - N/A   Clear
9:50 PM 41.0 °F 32.5 °F 33.8 °F 76% 29.95 in - West 17.3 mph - N/A   Clear
10:00 PM 42 °F - 33 °F 62% 29.95 in 19 mi West 18.4 mph - -  
10:20 PM 42.8 °F 35.4 °F 33.8 °F 70% 29.95 in - WNW 15.0 mph - N/A   Clear
10:50 PM 42.8 °F 35.8 °F 33.8 °F 70% 29.98 in - WNW 13.8 mph - N/A   Clear
11:00 PM 42 °F - 32 °F 57% 29.97 in 19 mi West 13.8 mph - -  
11:20 PM 41.0 °F 35.2 °F 33.8 °F 76% 29.98 in - WNW 9.2 mph - N/A   Clear
11:50 PM 41.0 °F 35.2 °F 33.8 °F 76% 29.98 in - West 9.2 mph - N/A   Clear